{"data":{"norad_id":61855,"epoch":"2026-05-25T02:05:29.923296Z","epoch_age_seconds":61297,"freshness":"FRESH","line1":"1 61855U 24202L   26145.08715189 -.00000108  00000+0  56178-5 0  9993","line2":"2 61855  43.0017 166.3642 0001328 288.3288  71.7419 15.27582243 87017","mean_motion":15.27582243,"eccentricity":0.0001328,"inclination_deg":43.0017,"raan_deg":166.3642,"arg_perigee_deg":288.3288,"mean_anomaly_deg":71.7419,"bstar":5.6178e-6,"rev_number":8701,"period_min":94.266610298638,"perigee_km":482.13121507733,"apogee_km":483.95354432058,"semimajor_km":6861.179379699,"source":"CELESTRAK","updated_at":"2026-05-25T13:38:19.451683Z"}}